{"data":{"norad_id":67184,"epoch":"2026-09-20T02:35:55.043808Z","epoch_age_seconds":112339,"freshness":"FRESH","line1":"1 67184U 25303X   26263.10827597  .00006993  00000+0  26338-3 0  9998","line2":"2 67184  43.0007 292.3340 0001195 273.1718  86.8997 15.27584313 42473","mean_motion":15.27584313,"eccentricity":0.0001195,"inclination_deg":43.0007,"raan_deg":292.334,"arg_perigee_deg":273.1718,"mean_anomaly_deg":86.8997,"bstar":0.00026338,"rev_number":4247,"period_min":94.266482559775,"perigee_km":482.21627120127,"apogee_km":483.85609159162,"semimajor_km":6861.1731813964,"source":"CELESTRAK","updated_at":"2026-09-21T09:00:36.132873Z"}}